View from above orbital plane
|
View from above satellite
|
Ground track
|
The orbit data is extracted from the following two-line orbital elements,
1 40069U 14037A 22176.98581041 .00000000 00000-0 19344-4 0 9993
2 40069 98.4304 194.4006 0004706 307.0728 53.0025 14.20711554413077
Epoch (UTC): | 25 June 2022 23:39:34 |
Eccentricity: | 0.0004706 |
inclination: | 98.4304° |
perigee height: | 819 km |
apogee height: | 826 km |
right ascension of ascending node: | 194.4006° |
argument of perigee: | 307.0728° |
revolutions per day: | 14.20711554 |
mean anomaly at epoch: | 53.0025° |
orbit number at epoch: | 41307 |
The dashed part of the orbit path shows where the satellite is in the earth's shadow,
|
|